Regional Weather Roundup
Issued by NWS Midland/Odessa, TX

Skip options and go directly to product.
Home | Oldest Version | Previous Version | Current Version | All | Graphics & Text | Save Text | Print | Product List | Glossary On

Skip product version selection by date and time.   
141
ASUS44 KMAF 010801
RWRMAF
MIDLAND AREA WEATHER ROUNDUP
NATIONAL WEATHER SERVICE MIDLAND TX
300 AM CDT TUE SEP 01 2015

...IN SOUTHWEST TEXAS AND SOUTHEAST NEW MEXICO...

CITY           SKY/WX    TMP DP  RH WIND       PRES   REMARKS
ALPINE         PTCLDY    67  52  57 S6        30.16S
ANDREWS        FAIR      73  54  51 S9        30.04F
ARTESIA        CLEAR     73  50  43 CALM      30.03F
BIG SPRING     CLEAR     75  56  51 SE10      30.04F
CARLSBAD       PTCLDY    77  48  35 SE8       30.00F
DRYDEN           N/A     78  63  59 E10G17    29.99S
FORT STOCKTON  CLEAR     76  55  48 SE13      30.01F
GUAD PASS      CLEAR     75  42  30 NE7       30.17F
HOBBS            N/A     68  55  64 S7        30.06F
MARFA          PTCLDY    57  45  62 NW9       30.14F
MIDLAND AIRPK  CLEAR     76  55  47 S9        30.03F
MIDLAND INTL   CLEAR     73  55  53 S7        30.02F
ODESSA         CLEAR     75  53  46 S8        30.03F
PECOS          CLEAR     77  54  45 SE12      29.98S
PRESIDIO       NOT AVBL
SEMINOLE       CLEAR     67  53  60 S6        30.05F
SNYDER         CLEAR     76  56  50 SE10      30.03S
WINK           CLEAR     75  54  47 SE9       29.99F
$$
...OTHER STATIONS IN TEXAS...

CITY           SKY/WX    TMP DP  RH WIND       PRES   REMARKS
ABILENE        CLEAR     76  62  62 S13       30.02S
AMARILLO       CLEAR     72  54  53 S16       30.05F
AUSTIN         PTCLDY    71  70  96 CALM      30.03S
BROWNSVILLE    MOCLDY    78  76  93 SW8       29.95S
CORPUS CHRISTI PTCLDY    77  72  84 SE7       29.95F THUNDER
DALLAS FTW     CLEAR     79  68  69 S10       30.01S
DEL RIO        CLEAR     76  66  71 E12       29.99F
EL PASO        PTCLDY    78  45  30 SE7       30.02S
HOUSTON INT    CLOUDY    74  73  97 N3        30.02F
LUBBOCK        PTCLDY    70  55  59 SE9       30.04F
SAN ANGELO     CLEAR     77  64  64 S14       30.01S
SAN ANTONIO    MOCLDY    78  71  79 SE5       30.03F
WACO           PTCLDY    77  68  73 S10       30.03S
WICHITA FALLS  NOT AVBL
$$
...OTHER LOCATIONS IN NEW MEXICO...

CITY           SKY/WX    TMP DP  RH WIND       PRES   REMARKS
ALAMAGORDO     PTCLDY    73  48  40 NE6       30.06S
ALBUQUERQUE    CLOUDY    72  48  42 S6        30.17F
CANNON AFB     PTCLDY    70  51  51 SE5       30.07F
CLOVIS         PTCLDY    66  52  59 SW7       30.09F
HOLLOMAN AFB   PTCLDY    75  51  43 W5        30.03F
ROSWELL        PTCLDY    68  51  54 SE5       30.03F
RUIDOSO        PTCLDY    63  46  55 MISG      30.28S
SANTA FE       MOCLDY    64  49  57 SW5       30.22S
TRUTH OR CONSE PTCLDY    72  51  47 NW8       30.13S
TUCUMCARI      PTCLDY    71  49  45 W7        30.03F
$$

USA.gov is the U.S. government's official web portal to all federal, state and local government web resources and services.